Nebraska City, NE

1:19 PM CDT on September 25, 2017 (GMT -0500)
Nebraska City Municipal

Weather History for KAFK - September, 2012

Change the Weather History Date:

Sunday, September 2, 2012

  Actual Average (KSDA) Record (KSDA)
Temperature  
Mean Temperature 76 °F -  
Max Temperature 89 °F 84 °F 104 °F (2000)
Min Temperature 63 °F 61 °F 41 °F (1981)
Cooling Degree Days 11    
Growing Degree Days 26 (Base 50)    
Moisture  
Dew Point 63 °F    
Average Humidity 67    
Maximum Humidity 95    
Minimum Humidity 42    
Precipitation  
Precipitation 0.00 in - - ()
Sea Level Pressure  
Sea Level Pressure 29.94 in    
Wind  
Wind Speed 3 mph (SE)    
Max Wind Speed 9 mph    
Max Gust Speed -    
Visibility 10 miles    
Events      
Averages and records for this station are not official NWS values.
T = Trace of Precipitation, MM = Missing Value Source: NWS Daily Summary

Daily Weather History Graph

Daily Weather History Graph

Search for Another Location

Airport or City:

Trip Planner

Search our weather history database for the weather conditions in past years. The results will help you decide how hot, cold, wet, or windy it might be!

Date:

Astronomy

Sep. 02, 2012 Rise Set
Actual Time 6:52 AM CDT 7:53 PM CDT
Civil Twilight 6:24 AM CDT 8:21 PM CDT
Nautical Twilight 5:50 AM CDT 8:54 PM CDT
Astronomical Twilight 5:16 AM CDT 9:28 PM CDT
Moon 8:40 PM CDT (9/2) 9:02 AM CDT (9/2)
Length of Visible Light 13h 56m
Length of Day
13h 01m
Waning Gibbous, 95% of the Moon is Illuminated
Sep 2
Waning Gibbous
Sep 8
Last Quarter
Sep 15
New
Sep 22
First Quarter
Sep 29
Full

Hourly Weather History & Observations

Time (CDT) Temp. Heat Index Dew Point Humidity Pressure Visibility Wind Dir Wind Speed Gust Speed Precip Events Conditions
12:15 AM 71.4 °F - 64.9 °F 80% 29.99 in 10.0 mi East 5.8 mph - N/A   Clear
12:35 AM 70.2 °F - 64.8 °F 83% 29.99 in 10.0 mi East 4.6 mph - N/A   Clear
12:55 AM 69.4 °F - 64.6 °F 84% 29.99 in 10.0 mi East 5.8 mph - N/A   Clear
1:15 AM 68.9 °F - 64.0 °F 84% 29.99 in 10.0 mi Calm Calm - N/A   Clear
1:35 AM 68.7 °F - 63.7 °F 84% 29.99 in 10.0 mi Calm Calm - N/A   Clear
1:55 AM 68.2 °F - 63.5 °F 85% 29.99 in 10.0 mi Calm Calm - N/A   Clear
2:15 AM 67.6 °F - 63.1 °F 85% 29.99 in 10.0 mi Calm Calm - N/A   Clear
2:35 AM 68.0 °F - 63.1 °F 84% 29.98 in 10.0 mi Calm Calm - N/A   Clear
2:55 AM 66.4 °F - 63.1 °F 89% 29.98 in 10.0 mi Calm Calm - N/A   Clear
3:15 AM 66.2 °F - 63.1 °F 90% 29.98 in 10.0 mi Calm Calm - N/A   Clear
3:35 AM 66.6 °F - 63.0 °F 88% 29.98 in 10.0 mi Calm Calm - N/A   Clear
3:55 AM 65.3 °F - 62.4 °F 90% 29.98 in 10.0 mi Calm Calm - N/A   Clear
4:15 AM 66.2 °F - 61.7 °F 85% 29.98 in 10.0 mi Calm Calm - N/A   Clear
4:35 AM 65.8 °F - 61.0 °F 84% 29.97 in 10.0 mi Calm Calm - N/A   Clear
4:55 AM 66.6 °F - 61.0 °F 82% 29.97 in 10.0 mi Calm Calm - N/A   Clear
5:15 AM 65.5 °F - 60.6 °F 84% 29.97 in 10.0 mi Calm Calm - N/A   Clear
5:35 AM 64.4 °F - 60.8 °F 88% 29.97 in 10.0 mi Calm Calm - N/A   Clear
5:55 AM 63.9 °F - 60.6 °F 89% 29.96 in 10.0 mi Calm Calm - N/A   Clear
6:15 AM 63.3 °F - 61.9 °F 95% 29.96 in 10.0 mi Calm Calm - N/A   Clear
6:35 AM 63.9 °F - 61.7 °F 93% 29.97 in 10.0 mi Calm Calm - N/A   Clear
6:55 AM 64.2 °F - 59.5 °F 85% 29.97 in 10.0 mi Calm Calm - N/A   Clear
7:15 AM 63.9 °F - 58.3 °F 82% 29.98 in 10.0 mi Calm Calm - N/A   Clear
7:35 AM 64.9 °F - 58.5 °F 79% 29.98 in 10.0 mi Calm Calm - N/A   Clear
7:55 AM 65.7 °F - 59.7 °F 81% 29.99 in 10.0 mi Calm Calm - N/A   Clear
8:15 AM 67.1 °F - 60.3 °F 79% 29.98 in 10.0 mi Calm Calm - N/A   Clear
8:35 AM 68.0 °F - 59.7 °F 75% 29.99 in 10.0 mi Calm Calm - N/A   Clear
8:55 AM 69.1 °F - 59.0 °F 70% 29.99 in 10.0 mi South 3.5 mph - N/A   Clear
9:15 AM 70.3 °F - 60.8 °F 72% 29.99 in 10.0 mi Calm Calm - N/A   Clear
9:35 AM 71.6 °F - 61.5 °F 70% 29.99 in 10.0 mi Calm Calm - N/A   Clear
9:55 AM 73.4 °F - 62.2 °F 68% 29.98 in 10.0 mi Calm Calm - N/A   Clear
10:15 AM 74.3 °F - 62.4 °F 66% 29.99 in 10.0 mi Calm Calm - N/A   Clear
10:35 AM 75.6 °F - 63.0 °F 65% 29.99 in 10.0 mi SW 3.5 mph - N/A   Clear
10:55 AM 76.8 °F - 64.0 °F 65% 29.99 in 10.0 mi Calm Calm - N/A   Clear
11:15 AM 78.1 °F - 64.6 °F 63% 29.99 in 10.0 mi Calm Calm - N/A   Clear
11:35 AM 80.2 °F 82.2 °F 65.5 °F 61% 29.99 in 10.0 mi Calm Calm - N/A   Clear
11:55 AM 80.4 °F 82.2 °F 65.1 °F 59% 29.98 in 10.0 mi Calm Calm - N/A   Clear
12:15 PM 82.8 °F 84.7 °F 65.8 °F 56% 29.97 in 10.0 mi ESE 5.8 mph - N/A   Clear
12:35 PM 83.5 °F 86.0 °F 66.7 °F 57% 29.96 in 10.0 mi East 5.8 mph - N/A   Clear
12:55 PM 84.0 °F 86.0 °F 65.5 °F 54% 29.95 in 10.0 mi SE 4.6 mph - N/A   Clear
1:15 PM 84.7 °F 86.6 °F 65.5 °F 52% 29.95 in 10.0 mi Calm Calm - N/A   Clear
1:35 PM 84.7 °F 86.1 °F 64.2 °F 50% 29.94 in 10.0 mi SE 5.8 mph - N/A   Clear
1:55 PM 86.9 °F 88.3 °F 64.4 °F 47% 29.94 in 10.0 mi SSE 5.8 mph - N/A   Clear
2:15 PM 86.9 °F 87.8 °F 63.1 °F 45% 29.94 in 10.0 mi Calm Calm - N/A   Clear
2:35 PM 87.3 °F 88.9 °F 64.6 °F 47% 29.93 in 10.0 mi Calm Calm - N/A   Clear
2:55 PM 88.0 °F 89.3 °F 64.0 °F 45% 29.92 in 10.0 mi South 3.5 mph - N/A   Clear
3:15 PM 88.7 °F 89.8 °F 63.3 °F 43% 29.91 in 10.0 mi Calm Calm - N/A   Clear
3:35 PM 89.1 °F 90.6 °F 64.4 °F 44% 29.90 in 10.0 mi SSE 4.6 mph - N/A   Clear
3:55 PM 89.4 °F 90.8 °F 64.4 °F 43% 29.89 in 10.0 mi SSE 8.1 mph - N/A   Clear
4:15 PM 89.6 °F 90.8 °F 63.9 °F 42% 29.89 in 10.0 mi SSE 8.1 mph - N/A   Clear
4:35 PM 89.6 °F 90.8 °F 63.5 °F 42% 29.89 in 10.0 mi ESE 8.1 mph - N/A   Clear
4:55 PM 89.6 °F 90.8 °F 63.9 °F 42% 29.89 in 10.0 mi SE 6.9 mph - N/A   Clear
5:15 PM 88.5 °F 89.5 °F 63.7 °F 43% 29.89 in 10.0 mi SE 5.8 mph - N/A   Clear
5:35 PM 89.1 °F 90.6 °F 64.2 °F 44% 29.89 in 10.0 mi SSE 6.9 mph - N/A   Clear
5:55 PM 88.7 °F 89.4 °F 63.0 °F 42% 29.89 in 10.0 mi SSE 6.9 mph - N/A   Clear
6:15 PM 88.0 °F 88.4 °F 62.1 °F 42% 29.88 in 10.0 mi SE 6.9 mph - N/A   Clear
6:35 PM 87.3 °F 88.3 °F 63.3 °F 45% 29.88 in 10.0 mi SE 5.8 mph - N/A   Clear
6:55 PM 86.0 °F 87.6 °F 64.6 °F 49% 29.88 in 10.0 mi SE 4.6 mph - N/A   Clear
7:15 PM 84.9 °F 86.1 °F 64.0 °F 49% 29.88 in 10.0 mi SE 6.9 mph - N/A   Clear
7:35 PM 82.8 °F 84.2 °F 64.2 °F 53% 29.89 in 10.0 mi SSE 5.8 mph - N/A   Clear
7:55 PM 81.5 °F 82.8 °F 63.3 °F 54% 29.89 in 10.0 mi SE 6.9 mph - N/A   Clear
8:15 PM 81.3 °F 83.0 °F 64.6 °F 57% 29.89 in 10.0 mi SSE 5.8 mph - N/A   Clear
8:35 PM 78.8 °F - 65.1 °F 63% 29.89 in 10.0 mi SSE 5.8 mph - N/A   Clear
8:55 PM 77.4 °F - 65.5 °F 67% 29.90 in 10.0 mi SE 5.8 mph - N/A   Clear
9:15 PM 75.4 °F - 65.3 °F 71% 29.90 in 10.0 mi SSE 3.5 mph - N/A   Clear
9:35 PM 76.1 °F - 65.5 °F 70% 29.91 in 10.0 mi SSE 4.6 mph - N/A   Clear
9:55 PM 75.4 °F - 65.5 °F 71% 29.91 in 10.0 mi SSE 5.8 mph - N/A   Clear
10:15 PM 74.8 °F - 65.8 °F 73% 29.92 in 10.0 mi SE 4.6 mph - N/A   Clear
10:35 PM 75.6 °F - 67.1 °F 75% 29.91 in 10.0 mi SE 4.6 mph - N/A   Clear
10:55 PM 75.4 °F - 67.3 °F 76% 29.91 in 10.0 mi SE 8.1 mph - N/A   Clear
11:15 PM 75.7 °F - 67.1 °F 74% 29.90 in 10.0 mi SE 8.1 mph - N/A   Clear
11:35 PM 75.7 °F - 67.5 °F 75% 29.90 in 10.0 mi SE 9.2 mph - N/A   Clear
11:55 PM 73.0 °F - 67.6 °F 83% 29.90 in 10.0 mi SSE 6.9 mph - N/A   Clear